Weather History for Santiago de Compostela, Spain

Change the Weather History Date:

Monday, May 13, 2013

  Actual Average Record
Temperature  
Mean Temperature 56 °F -  
Max Temperature 68 °F 66 °F 77 °F (2012)
Min Temperature 44 °F 48 °F 41 °F (1997)
Degree Days  
Heating Degree Days 9    
Growing Degree Days 6 (Base 50)    
Moisture  
Dew Point 47 °F    
Average Humidity 78    
Maximum Humidity 93    
Minimum Humidity 56    
Precipitation  
Precipitation 0.00 in - - ()
Sea Level Pressure  
Sea Level Pressure 30.18 in    
Wind  
Wind Speed 6 mph ()    
Max Wind Speed 18 mph    
Max Gust Speed 28 mph    
Visibility 6.2 miles    
Events      
Averages and records for this station are not official NWS values.
T = Trace of Precipitation, MM = Missing Value Source: Averaged Metar Reports

Daily Weather History Graph

Daily Weather History Graph

Search for Another Location

Airport:

Trip Planner

Search our weather history database for the weather conditions in past years. The results will help you decide how hot, cold, wet, or windy it might be!

Date:

Astronomy

May. 13, 2013 Rise Set
Actual Time 7:12 AM CEST 9:47 PM CEST
Civil Twilight 6:40 AM CEST 10:20 PM CEST
Nautical Twilight 6:00 AM CEST 11:00 PM CEST
Astronomical Twilight 5:14 AM CEST 11:46 PM CEST
Moon 9:46 AM CEST (5/13) 12:04 AM CEST (5/13)
Length of Visible Light 15h 39m
Length of Day
14h 34m
Waxing Crescent, 10% of the Moon is Illuminated
May 13
Waxing Crescent
May 18
First Quarter
May 25
Full
May 31
Last Quarter
Jun 8
New

Hourly Weather History & Observations

Time (CEST) Temp. Windchill Dew Point Humidity Pressure Visibility Wind Dir Wind Speed Gust Speed Precip Events Conditions
12:00 AM 48.2 °F - 44.6 °F 87% 30.27 in - North 6.9 mph - N/A   Clear
12:30 AM 48.2 °F - 44.6 °F 87% 30.27 in - Variable 1.2 mph - N/A   Clear
1:00 AM 46.4 °F 43.5 °F 44.6 °F 93% 30.24 in - North 5.8 mph - N/A   Clear
1:30 AM 48.2 °F - 44.6 °F 87% 30.24 in - Variable 2.3 mph - N/A   Clear
2:00 AM 48.2 °F - 44.6 °F 87% 30.24 in - Variable 2.3 mph - N/A   Clear
2:30 AM 46.4 °F - 44.6 °F 93% 30.24 in - Variable 2.3 mph - N/A   Clear
3:00 AM 44.6 °F - 42.8 °F 93% 30.24 in - Variable 1.2 mph - N/A   Clear
3:30 AM 44.6 °F - 42.8 °F 93% 30.24 in - Variable 2.3 mph - N/A   Clear
4:00 AM 44.6 °F 42.2 °F 42.8 °F 93% 30.24 in - North 4.6 mph - N/A   Clear
4:30 AM 46.4 °F - 42.8 °F 87% 30.21 in - Variable 2.3 mph - N/A   Clear
5:00 AM 44.6 °F 41.4 °F 42.8 °F 93% 30.21 in - NE 5.8 mph - N/A   Clear
5:30 AM 46.4 °F 43.5 °F 42.8 °F 87% 30.21 in - NE 5.8 mph - N/A   Clear
6:00 AM 44.6 °F 42.2 °F 41.0 °F 87% 30.21 in - NE 4.6 mph - N/A   Clear
6:30 AM 44.6 °F 42.2 °F 41.0 °F 87% 30.21 in - NE 4.6 mph - N/A   Clear
7:00 AM 44.6 °F 41.4 °F 41.0 °F 87% 30.21 in - NNE 5.8 mph - N/A   Clear
7:30 AM 44.6 °F 40.7 °F 42.8 °F 93% 30.21 in - NNE 6.9 mph - N/A   Clear
8:00 AM 44.6 °F 40.2 °F 42.8 °F 93% 30.21 in - NNE 8.1 mph - N/A   Clear
8:30 AM 46.4 °F 42.9 °F 42.8 °F 87% 30.21 in - NE 6.9 mph - N/A   Clear
9:00 AM 48.2 °F - 44.6 °F 87% 30.21 in - NE 5.8 mph - N/A   Clear
9:30 AM 50.0 °F - 44.6 °F 82% 30.21 in - NE 5.8 mph - N/A   Clear
10:00 AM 51.8 °F - 46.4 °F 82% 30.21 in - NE 5.8 mph - N/A   Clear
10:30 AM 53.6 °F - 46.4 °F 77% 30.21 in - NNE 5.8 mph - N/A   Clear
11:00 AM 55.4 °F - 48.2 °F 77% 30.21 in - NE 6.9 mph - N/A   Clear
11:30 AM 59.0 °F - 48.2 °F 67% 30.21 in - NE 8.1 mph - N/A   Clear
12:00 PM 60.8 °F - 50.0 °F 68% 30.18 in - NE 9.2 mph - N/A   Clear
12:30 PM 62.6 °F - 51.8 °F 68% 30.18 in - NNE 8.1 mph - N/A   Clear
1:00 PM 62.6 °F - 51.8 °F 68% 30.18 in - NNE 10.4 mph - N/A   Clear
1:30 PM 64.4 °F - 50.0 °F 59% 30.18 in 6.2 mi NNE 10.4 mph - N/A   Partly Cloudy
2:00 PM 64.4 °F - 51.8 °F 64% 30.18 in 6.2 mi NNE 10.4 mph - N/A   Partly Cloudy
2:30 PM 66.2 °F - 51.8 °F 60% 30.15 in 6.2 mi NNE 10.4 mph - N/A   Partly Cloudy
3:00 PM 68.0 °F - 51.8 °F 56% 30.15 in 6.2 mi NNE 9.2 mph - N/A   Partly Cloudy
3:30 PM 68.0 °F - 53.6 °F 60% 30.15 in 6.2 mi NNE 12.7 mph - N/A   Partly Cloudy
4:00 PM 68.0 °F - 55.4 °F 64% 30.15 in 6.2 mi North 12.7 mph - N/A   Partly Cloudy
4:30 PM 66.2 °F - 55.4 °F 68% 30.12 in 6.2 mi North 15.0 mph 27.6 mph N/A   Partly Cloudy
5:00 PM 66.2 °F - 53.6 °F 64% 30.12 in 6.2 mi North 15.0 mph - N/A   Partly Cloudy
5:30 PM 64.4 °F - 53.6 °F 68% 30.12 in 6.2 mi North 18.4 mph - N/A   Partly Cloudy
6:00 PM 64.4 °F - 51.8 °F 64% 30.12 in 6.2 mi North 18.4 mph - N/A   Partly Cloudy
6:30 PM 64.4 °F - 51.8 °F 64% 30.12 in 6.2 mi North 13.8 mph - N/A   Partly Cloudy
7:00 PM 62.6 °F - 50.0 °F 63% 30.12 in 6.2 mi North 13.8 mph - N/A   Partly Cloudy
7:30 PM 60.8 °F - 50.0 °F 68% 30.12 in 6.2 mi North 15.0 mph - N/A   Partly Cloudy
8:00 PM 59.0 °F - 48.2 °F 67% 30.12 in 6.2 mi North 15.0 mph - N/A   Partly Cloudy
8:30 PM 55.4 °F - 48.2 °F 77% 30.12 in 6.2 mi NNW 12.7 mph - N/A   Partly Cloudy
9:00 PM 53.6 °F - 48.2 °F 82% 30.12 in 6.2 mi North 12.7 mph - N/A   Partly Cloudy
9:30 PM 51.8 °F - 48.2 °F 88% 30.12 in 6.2 mi North 11.5 mph - N/A   Partly Cloudy
10:30 PM 50.0 °F - 46.4 °F 87% 30.12 in - North 6.9 mph - N/A   Clear
11:00 PM 50.0 °F - 46.4 °F 87% 30.12 in - NNE 6.9 mph - N/A   Clear
11:30 PM 50.0 °F - 46.4 °F 87% 30.12 in - NNE 9.2 mph - N/A   Clear